www.pogodaiklimat.ru

Погода и климат >> Архив погоды >> Иран >> Гечсаран


ПОГОДА в Гечсаране

  • Прогноз погоды в Гечсаране
  • Монитор погоды в Гечсаране

АРХИВ ПОГОДЫ в Гечсаране

Время (UTC), дата Ветер
(напр.,м/с)
 
Видим.   Явления Облачность Т
(С)
Тd
(С)
f
(%)
Тe
(С)
Тes
(С)
Комфортность P
(гПа)
Po
(гПа)
Тmin
(С)
Tmax
(С)
R
(мм)
R24
(мм)
S
(см)
06 13.02 штиль 0 10 км ясно +12.4 +6.2 66 +12 +21 1024.9 940.2
09 13.02 штиль 0 10 км ясно +16.3 +3.0 41 +16 +32 опасность
простуды
1023.2 938.8
12 13.02 ЮЗ 2 10 км 3/0
[Ci fib]
+16.2 +4.6 46 +16 +20 1022.2 937.6
15 13.02 З 2 10 км ясно +12.3 +6.8 69 +11 +11 1022.9 937.7 +18.9
18 13.02 штиль 0 10 км ясно +8.8 +7.3 90 +8 +8 1023.4 938.8
21 13.02 штиль 0 10 км ясно +6.2 +5.5 95 +5 +5 1022.1 937.8
00 14.02 штиль 0 10 км ясно +4.8 +4.5 98 +4 +4 1021.4 937.0
03 14.02 штиль 0 10 км ясно +3.2 +3.1 99 +2 +2 1022.2 936.8 +3.1
06 14.02 штиль 0 10 км 5/0
[Ci fib]
+11.8 +4.5 61 +11 +19 1023.0 938.3
09 14.02 ЮВ 3 10 км 3/0
[Ci fib]
+17.9 -0.4 29 +18 +27 1021.5 937.4
12 14.02 штиль 0 10 км 4/0
[Ci fib]
+17.2 +6.1 48 +17 +22 1019.4 935.3
15 14.02 штиль 0 10 км 8/0
[Cs]
+14.2 +3.4 48 +14 +14 1020.0 935.2 +19.0 666
18 14.02 штиль 0 10 км 8/0
[Cs]
+12.6 +6.0 64 +12 +12 1019.8 936.1
21 14.02 штиль 0 10 км 8/0
[Cs]
+13.8 +4.7 54 +14 +14 1016.7 934.1
00 15.02 Ю 2 10 км 10/5 900 м
[Cb calv As trans]
+11.0 +8.4 84 +10 +10 1018.3 935.2
03 15.02 ЮВ 3 10 км {дождь} 9/5 900 м
[Cb calv Ac As]
+12.1 +6.2 67 +11 +11 1017.1 933.7 +10.9
06 15.02 ЮВ 4 8000 м слаб. дождь {гроза} 10/4 600 м
[Sc diur, vesp As op]
+15.2 +9.6 69 +14 +15 1017.7 934.6 2
09 15.02 Ю 6 10 км в посл. час дождь 8/4 1200 м
[Sc diur, vesp Ac As]
+15.4 +6.7 56 +14 +15 1018.8 935.7
12 15.02 ЮВ 4 10 км 10/4 1200 м
[Sc diur, vesp As op]
+12.6 +9.3 80 +11 +11 1018.8 935.0 2
15 15.02 ЮВ 3 8000 м дождь 10/4 1200 м
[Sc diur, vesp As op]
+11.9 +9.8 87 +10 +10 1017.4 933.8 +17.6 666
18 15.02 ЮВ 3 8000 м слаб. дождь 10/4 1200 м
[Sc diur, vesp As op]
+11.9 +10.3 90 +10 +10 1017.3 934.2 3
21 15.02 ЮВ 2 8000 м в посл. час дождь 10/4 1200 м
[Sc diur, vesp As op]
+11.8 +11.7 99 +11 +11 1016.2 933.2
00 16.02 штиль 0 6000 м в посл. час гроза {ливн. осадки} 10/6 900 м
[Cb calv As op]
+11.1 +8.5 84 +10 +10 1016.7 933.1 10
03 16.02 штиль 0 6000 м слаб. дождь {гроза} 10/6 900 м
[Cb calv As op]
+10.6 +8.9 89 +10 +10 1017.9 934.0 +10.4 666
06 16.02 ЮВ 3 8000 м дымка {дождь} 10/4 300 м
[Cb calv Ac As]
+10.6 +7.8 83 +9 +10 1018.9 935.0 5
09 16.02 штиль 0 8000 м слаб. дождь 10/4 1050 м
[Cb calv As op]
+11.4 +8.3 81 +11 +13 1018.2 934.4
12 16.02 штиль 0 6000 м слаб. дождь 10/4 1050 м
[Cb calv As op]
+10.5 +9.4 93 +10 +10 1017.5 933.6 8
15 16.02 штиль 0 10 км 8/3 1200 м
[Sc diur, vesp Ac As]
+9.3 +7.9 91 +8 +8 1018.0 933.7 +11.6
18 16.02 штиль 0 10 км 4/0
[Ac trans]
+7.4 +3.8 78 +7 +7 1018.1 933.9
21 16.02 штиль 0 10 км ясно +5.5 +4.3 92 +4 +4 1018.1 933.9
00 17.02 штиль 0 900 м туман ясно +3.1 +2.8 98 +2 +2 1019.2 933.9 0.0
03 17.02 штиль 0 3000 м дымка {туман} ясно +1.8 +0.6 92 +1 +1 1019.3 933.9 +1.8
06 17.02 штиль 0 10 км {туман} ясно +9.3 +7.6 89 +8 +18 опасность
простуды
1020.8 935.8
09 17.02 штиль 0 20 км 1/1 1200 м
[Cu hum]
+15.5 +4.3 47 +15 +30 опасность
простуды
1018.9 934.6
12 17.02 З 5 20 км 3/3 1200 м
[Cu med, cong]
+14.4 +5.7 56 +13 +15 1017.6 933.0
15 17.02 СЗ 3 20 км ясно +10.9 +3.0 58 +9 +9 1018.5 933.0 +16.6
18 17.02 штиль 0 10 км ясно +8.6 +3.7 71 +8 +8 1018.2 933.6
21 17.02 штиль 0 10 км ясно +7.7 +3.7 76 +7 +7 1017.3 933.4
00 18.02 штиль 0 10 км ясно +3.2 +2.6 96 +2 +2 1017.0 932.4
03 18.02 штиль 0 10 км ясно +2.7 +2.7 100 +1 +1 1017.9 932.6 +2.5
06 18.02 ЮВ 2 10 км ясно +10.4 +5.2 70 +9 +16 1017.9 933.4
09 18.02 З 2 10 км 1/1 1200 м
[Cu hum]
+13.9 +3.7 50 +14 +25 опасность
простуды
1016.4 932.4 666
12 18.02 З 5 10 км 3/3 1200 м
[Cu hum]
+14.2 +1.2 41 +13 +14 1014.3 929.9
15 18.02 З 3 10 км ясно +10.9 +2.5 56 +9 +9 1014.1 929.2 +14.9 666
18 18.02 штиль 0 10 км 3/3 1200 м
[Cu hum]
+7.7 +3.4 74 +7 +7 1014.0 929.7
21 18.02 З 2 10 км ясно +6.5 +2.8 77 +4 +4 1013.5 929.6
00 19.02 штиль 0 10 км ясно +3.9 +2.7 92 +3 +3 1012.4 928.2
03 19.02 штиль 0 10 км 3/0
[Ci fib]
+3.9 +3.2 95 +3 +3 1013.4 928.7 +2.7 666
06 19.02 штиль 0 10 км ясно +11.7 +1.6 50 +12 +21 1014.0 929.9
09 19.02 СЗ 2 10 км ?/? +13.7 +2.9 48 +13 +13 1013.9 929.8
12 19.02 З 4 10 км 3/3 1200 м
[Cu med, cong]
+13.8 +1.8 44 +13 +15 1013.2 928.8
15 19.02 штиль 0 10 км ясно +10.4 +1.0 52 +10 +10 1015.1 930.0 +15.0
18 19.02 штиль 0 10 км ясно +7.8 +2.3 68 +7 +7 1016.0 931.7
21 19.02 штиль 0 10 км ясно +5.7 +2.5 80 +5 +5 1016.6 932.3
00 20.02 штиль 0 10 км ясно +3.7 +2.5 92 +3 +3 1016.9 932.3
03 20.02 штиль 0 10 км ясно +2.3 +1.4 94 +1 +1 1018.8 933.3 +2.2 666

 

Местоположение метеостанции Гечсаран (Иран): широта 30.43 долгота 50.77 высота над уровнем моря 699 м.

В архиве по умолчанию представлена погода в Гечсаране за последнюю неделю. Архивные данные за месяц целиком и за предыдущие месяцы, начиная с января 2011 года, Вы можете получить, выбрав интересующий диапазон дат из раскрывающегося списка и нажав кнопку "Ввод!".


*Определитесь, кто Вы:
робот инопланетянин человек

Внимание! Время в таблицах - всемирное. Для получения местного времени необходимо прибавить поправку, которая равна 3.5 ч.

Смотрите также архив погоды в соседних городах и на ближайших метеорологических станциях:

Погода в Ясудже (Иран) (82 км)
Погода в Омидийе (Иран) (112 км)
Погода на Харке (Иран) (137 км)
Погода в Бушир аэропорту (Иран) (161 км)
Погода в Бушире (Иран) (165 км)
Погода в Ширазе (Иран) (197 км)
Погода в Абаде (Иран) (200 км)
Погода в Шехре-Корде (Иран) (206 км)
Погода в Месджеде-Солеймане (Иран) (224 км)
Погода в Эль-Фао (Ирак) (224 км)

Пояснения к столбцам:

Ветер - указаны скорость ветра в м/с - средняя за 10 мин, порывы в срок и между сроками (в фигурных скобках) и направление, откуда дует ветер: С - северный, СВ - северо-восточный, В - восточный, ЮВ - юго-восточный, Ю - южный, ЮЗ - юго-западный, З - западный, СЗ - северо-западный.
Видимость - горизонтальная дальность видимости в метрах или километрах. При видимости от 1 до 10 км при отсутствии осадков обычно наблюдается дымка, при ухудшении видимости до 1 км и менее - туман. В сухую погоду видимость может ухудшаться дымом, пылью или мглою.
Явления - указаны атмосферные явления, наблюдавшиеся в срок или в последний час перед сроком; фигурными скобками обозначены явления, наблюдавшиеся между сроками (за 1-3 часа до срока); квадратными скобками обозначены град или гололедные отложения с указанием их диаметра в мм.
Облачность - указаны через наклонную черту общая и нижняя облачность в баллах и высота нижней границы облаков в метрах; квадратными скобками обозначены формы облаков: Ci - перистые, Cs - перисто-слоистые, Cc - перисто-кучевые, Ac - высококучевые, As - высокослоистые, Sc - слоисто-кучевые, Ns - слоисто-дождевые, Cu - кучевые, Cb - кучево-дождевые. Подробнее классификацию облаков см. в Атласе облаков (PDF).
T - Температура воздуха - температура, измеренная на высоте 2 м над землей.
Td - Температура точки росы - температура, при понижении до которой содержащийся в воздухе водяной пар достигнет насыщения.
f - Относительная влажность воздуха - влажноcть воздуха, измеренная на высоте 2 м над землей.
Te - Эффективная температура - температура, которую ощущает одетый по сезону человек в тени. Характеристика душности погоды. При расчете учитывается влияние влажности воздуха и скорости ветра на теплоощущения человека.
Tes - Эффективная температура на солнце - температура, которую ощущает человек, с поправкой на солнечный нагрев. Характеристика знойности погоды. Зависит от высоты солнца над горизонтом, облачности и скорости ветра. Ночью, в пасмурную погоду, а также при ветре 12 м/с и более поправка равна нулю.
P - Атмосферное давление - приведенное к уровню моря атмосферное давление.
Po - Атмосферное давление - измеренное на уровне метеостанции атмосферное давление.
Tmin - Минимальная температура - минимум температуры воздуха на высоте 2 м над землей.
Tmax - Максимальная температура - максимум температуры воздуха на высоте 2 м над землей.
R - Количество осадков - Количество выпавших осадков за период времени, мм. При наведении курсора мыши на число - период времени, за который выпало указанное количество осадков.
R24 - Количество осадков - Количество выпавших осадков за 24 часа, мм.
S - Снежный покров - Высота снежного покрова, см. При наведении курсора мыши на число - состояние снежного покрова и степень покрытия местности в баллах.